TimeEST,TemperatureF,Dew PointF,Humidity,Sea Level PressureIn,VisibilityMPH,Wind Direction,Wind SpeedMPH,Gust SpeedMPH,PrecipitationIn,Events,Conditions,WindDirDegrees,DateUTC
12:51 AM,19.9,10.9,68,30.50,10.0,NW,4.6,-,N/A,,Mostly Cloudy,310,2013-12-08 05:51:00
1:51 AM,19.9,10.9,68,30.52,10.0,NNW,3.5,-,N/A,,Overcast,340,2013-12-08 06:51:00
2:51 AM,19.9,8.1,60,30.52,10.0,NNW,8.1,-,N/A,,Overcast,340,2013-12-08 07:51:00
3:51 AM,19.0,7.0,59,30.54,10.0,WNW,6.9,-,N/A,,Overcast,290,2013-12-08 08:51:00
4:51 AM,19.0,7.0,59,30.54,10.0,NW,4.6,-,N/A,,Overcast,310,2013-12-08 09:51:00
5:51 AM,18.0,6.1,60,30.57,10.0,Calm,Calm,-,N/A,,Overcast,0,2013-12-08 10:51:00
6:51 AM,19.0,7.0,59,30.59,10.0,Calm,Calm,-,N/A,,Overcast,0,2013-12-08 11:51:00
7:51 AM,19.0,6.1,57,30.61,10.0,Calm,Calm,-,N/A,,Overcast,0,2013-12-08 12:51:00
8:51 AM,19.9,8.1,60,30.60,10.0,Variable,3.5,-,N/A,,Overcast,0,2013-12-08 13:51:00
9:51 AM,21.0,10.0,63,30.62,10.0,NNW,4.6,-,N/A,,Mostly Cloudy,340,2013-12-08 14:51:00
10:51 AM,21.9,9.0,58,30.62,10.0,NW,5.8,-,N/A,,Overcast,310,2013-12-08 15:51:00
11:51 AM,23.0,8.1,53,30.57,10.0,NNW,9.2,-,N/A,,Clear,340,2013-12-08 16:51:00
12:51 PM,23.0,8.1,53,30.58,10.0,NW,4.6,-,N/A,,Clear,310,2013-12-08 17:51:00
1:51 PM,24.1,8.1,51,30.57,10.0,NW,3.5,-,N/A,,Scattered Clouds,310,2013-12-08 18:51:00
2:51 PM,24.1,7.0,48,30.56,10.0,Calm,Calm,-,N/A,,Partly Cloudy,0,2013-12-08 19:51:00
3:51 PM,23.0,8.1,53,30.59,10.0,NW,3.5,-,N/A,,Clear,310,2013-12-08 20:51:00
4:51 PM,21.0,10.0,63,30.58,10.0,Calm,Calm,-,N/A,,Clear,0,2013-12-08 21:51:00
5:51 PM,19.9,10.9,68,30.58,10.0,Calm,Calm,-,N/A,,Clear,0,2013-12-08 22:51:00
6:51 PM,19.9,12.0,71,30.57,10.0,Calm,Calm,-,N/A,,Mostly Cloudy,0,2013-12-08 23:51:00
7:51 PM,21.0,12.9,71,30.56,10.0,Calm,Calm,-,N/A,,Overcast,0,2013-12-09 00:51:00
8:51 PM,19.9,12.9,74,30.56,10.0,Calm,Calm,-,N/A,,Overcast,0,2013-12-09 01:51:00
9:51 PM,21.9,12.0,66,30.55,10.0,Calm,Calm,-,N/A,,Overcast,0,2013-12-09 02:51:00
10:51 PM,21.0,14.0,74,30.55,10.0,Calm,Calm,-,N/A,,Overcast,0,2013-12-09 03:51:00
11:51 PM,21.9,10.0,60,30.51,10.0,SE,3.5,-,N/A,,Overcast,140,2013-12-09 04:51:00